User: anonymous   Login
Location: Newark
(49.1000°N, 0.4667°W)
Time: 09:31:13
(UTC+00:00)
Language:

POLYITAN 1 - Orbit

View from above orbital plane
View from above orbital plane
View from above satellite
View from above satellite

Ground track
Ground track

The orbit data is extracted from the following two-line orbital elements,

1 40042U 14033AJ  21300.35586586  .00001184  00000-0  13029-3 0  9995
2 40042  97.9486 232.3522 0015976  94.9494 265.3548 14.89437658398942
Epoch (UTC): 27 October 2021 08:32:26
Eccentricity: 0.0015976
inclination: 97.9486°
perigee height: 588 km
apogee height: 611 km
right ascension of ascending node: 232.3522°
argument of perigee: 94.9494°
revolutions per day: 14.89437658
mean anomaly at epoch: 265.3548°
orbit number at epoch: 39894

The dashed part of the orbit path shows where the satellite is in the earth's shadow,  

DLR